Voltar ao catálogo

USA 390

AtivoMilitarVLEO
NORAD 60173·PAYLOAD·🇺🇸 United States

Lançado Jun 29, 2024 de Vandenberg Space Force Base

Loading…

Próximas Passagens (próximas 24 horas)

TLE

ObsoletoSource: Mike McCants

Época: Aug 31, 2026, 22:48 UTC

1 60173U 24121R   26243.95004431 0.00000000  00000-0  00000-0 0    03
2 60173  70.0240 196.8704 0004000 265.6934  94.3066 14.96714532    06

Acompanhe USA 390 em tempo real com AllMySat

Download on the App Store